User: anonymous   Login
Location: Unspecified
(0.0000°N, 0.0000°E)
Time: 22:10:16
(UTC+02:00)
Language:

Hamsat - Orbit

View from above orbital plane
View from above orbital plane
View from above satellite
View from above satellite

Ground track
Ground track

The orbit data is extracted from the following two-line orbital elements,

1 28650U 05017B   16237.90943426 +.00000434 +00000-0 +52336-4 0  9994
2 28650 097.6139 217.0335 0024613 034.9489 325.3338 14.88368655612024
Epoch (UTC): 24 August 2016 21:49:35
Eccentricity: 0.0024613
inclination: 97.6139°
perigee height: 586 km
apogee height: 620 km
right ascension of ascending node: 217.0335°
argument of perigee: 34.9489°
revolutions per day: 14.88368655
mean anomaly at epoch: 325.3338°
orbit number at epoch: 61202

The dashed part of the orbit path shows where the satellite is in the earth's shadow,  

DLR